[[{"header":{"parameterUnit":"m.s-1","parameterCategory":1,"la1":30.2991,"la2":30.254,"lo1":-89.0895,"lo2":-89.0444,"dy":0.0017,"dx":0.0017,"nx":28,"ny":28,"refTime":"2025-01-07T09:00:00:Z","depth":0,"parameterNumber":2,"parameterNumberName":"U-component_of_WINDS"},"data":[0,0,0,0,0,0,0,0,0,0,0,0,0,0,0,0,0,0,0,0,0,0,0,0,0,0,0,0,0,0,0,0,0,0,0,0,0,0,0,0,0,0,0,0,0,0,0,0,0,0,0,0,0,0,0,0,0,0,0.9488,0.9487,0,0.9486,0.9486,0.9486,0.948,0.948,0.9479,0.9479,0.9477,0.9477,0.9477,0,0,0,0,0,0,0,0,0,0,0,0,0,0.9485,0.9485,0.9488,0.9487,0.9487,0.9486,0.9486,0.9486,0.948,0.948,0.9479,0.9479,0.9477,0.9477,0.9477,0,0,0,0,0,0,0,0,0,0,0,0,0,0.9485,0.9485,0.9488,0.9484,0.9484,0.9486,0.9486,0.9486,0.948,0.948,0.9479,0.9479,0.9477,0.9477,0.9477,0.9482,0,0,0.9477,0.9477,0,0,0,0,0,0,0,0,0.9485,0.9485,0.9485,0.9484,0.9484,0.9483,0.9484,0.9485,0.948,0.9481,0.9479,0.9479,0.9479,0.9479,0.9479,0.9482,0.9482,0.9477,0.9477,0.9477,0.9477,0,0,0,0,0,0,0,0.9485,0.9485,0.9487,0.9485,0.9484,0.9483,0.9483,0.9484,0.9481,0.9481,0.9481,0.9481,0.9479,0.9479,0.9479,0.9482,0.9477,0.9477,0.9477,0.9477,0.949,0.949,0,0,0,0,0,0,0.9486,0.9485,0.9487,0.9487,0.9484,0.9483,0.9483,0.9483,0.9481,0.9481,0.9481,0.948,0.9479,0.9479,0.9479,0.9485,0.9477,0.9478,0.9478,0.9489,0.949,0.949,0,0,0,0,0,0,0.9485,0.9486,0.9487,0.9486,0.9486,0.9483,0.9484,0.9484,0.9484,0.9481,0.948,0.9482,0.9479,0.9479,0.9482,0.9485,0.9478,0.9478,0.9489,0.949,0.949,0.9497,0,0,0,0,0,0,0.9485,0.9486,0.9487,0.9486,0.9486,0.949,0.9484,0.9484,0.9484,0.9483,0.9482,0.9481,0.9479,0.9481,0.9482,0.9485,0.9478,0.9489,0.9489,0.949,0.9497,0.9498,0.9499,0,0,0,0,0,0.9485,0.9489,0.9488,0.9488,0.9488,0.949,0.949,0.9487,0.9484,0.9486,0.9485,0.9481,0.9485,0.9482,0.9482,0.9485,0.9489,0.9489,0.949,0.9496,0.9498,0.9499,0,0,0,0,0,0,0.949,0.9489,0.9487,0.949,0.949,0.9489,0.9491,0.9489,0.9489,0.9488,0.9485,0.9484,0.9488,0.9487,0.9484,0.9491,0.9486,0.9487,0.9491,0.9492,0.9493,0.9493,0.9478,0,0,0,0,0,0.9492,0.9494,0.9492,0.9495,0.9495,0.9493,0.9494,0.9492,0.9492,0.9491,0.949,0.949,0.9491,0.9492,0.9492,0.9497,0.9497,0.9499,0.95,0.9501,0.9502,0.9505,0.9506,0.9492,0.9492,0.9492,0,0,0.9495,0.9494,0.9495,0.9496,0.9496,0.9498,0.9493,0.9495,0.9497,0.9492,0.9494,0.9494,0.9493,0.9497,0.9499,0.9496,0.9506,0.9502,0.9503,0.9503,0.9505,0.9507,0.9508,0.9492,0.9492,0.9492,0,0,0.9501,0.9501,0.9504,0.9504,0.9504,0.9503,0.9504,0.9503,0.9502,0.9505,0.9502,0.9504,0.9506,0.9506,0.9506,0.9514,0.9511,0.9515,0.952,0.9523,0.9524,0.9525,0.9528,0.9529,0.9515,0.9515,0.9515,0,0.9505,0.9508,0.9506,0.9508,0.9509,0.9506,0.9509,0.9509,0.9509,0.951,0.9507,0.951,0.951,0.9514,0.9516,0.9517,0.9518,0.9514,0.9524,0.9525,0.9526,0.9529,0.953,0.9516,0.9516,0.9516,0.9516,0,0.9512,0.9515,0.9517,0.9518,0.9519,0.9522,0.9521,0.9522,0.952,0.952,0.9523,0.9523,0.9524,0.9525,0.9523,0.9529,0.9528,0.9525,0.952,0.9528,0.953,0.9532,0.9516,0.9516,0.9516,0.9516,0,0,0.952,0.9522,0.9522,0.9523,0.9524,0.9525,0.9529,0.953,0.9532,0.9532,0.9535,0.9537,0.9535,0.9536,0.9534,0.9537,0.9544,0.9534,0.9534,0.9536,0.9551,0.9553,0.9554,0.9542,0.9543,0.9543,0.9551,0,0.9527,0.9532,0.9531,0.9536,0.9539,0.9536,0.9539,0.954,0.954,0.9542,0.9541,0.9543,0.954,0.954,0.9543,0.9542,0.9547,0.9542,0.9545,0.9545,0.9544,0.9556,0.9557,0.9565,0.9552,0.9553,0.9553,0,0.9534,0.9536,0.9542,0.9543,0.9544,0.9546,0.9549,0.955,0.9552,0.9551,0.9553,0.9551,0.9554,0.9551,0.9555,0.9552,0.9553,0.9553,0.9554,0.9553,0.9549,0.9556,0.9568,0.9569,0.9554,0.9554,0.9554,0,0.954,0.9544,0.9548,0.9549,0.955,0.9552,0.9553,0.9554,0.9555,0.9557,0.9558,0.956,0.9561,0.9563,0.9562,0.956,0.9568,0.9563,0.9567,0.9567,0.9568,0.9568,0.9581,0.957,0.957,0.957,0.957,0,0.9547,0.955,0.955,0.9553,0.9557,0.9556,0.9561,0.9561,0.9562,0.9565,0.9563,0.9566,0.9565,0.9567,0.9567,0.9571,0.9572,0.9571,0.9571,0.9571,0.9571,0.9572,0.9571,0.957,0.957,0.957,0.957,0,0.9553,0.9553,0.9558,0.9559,0.956,0.9563,0.9564,0.9567,0.9567,0.9571,0.9571,0.9572,0.9575,0.9574,0.9578,0.9577,0.9583,0.9582,0.9582,0.9582,0.9586,0.9586,0.9599,0.9601,0.9589,0.9589,0.9589,0,0.9557,0.956,0.9562,0.9564,0.9565,0.9568,0.957,0.957,0.9572,0.9574,0.9577,0.958,0.9582,0.9587,0.9588,0.9591,0.959,0.9594,0.959,0.959,0.959,0.9589,0.959,0.9595,0.9595,0.9595,0.9595,0,0.9564,0.9565,0.9567,0.9571,0.9573,0.9575,0.9578,0.9579,0.9579,0.9582,0.9585,0.9587,0.9591,0.9595,0.9598,0.9598,0.9597,0.9597,0.9598,0.9598,0.9598,0.9598,0.9584,0.9596,0.9596,0.9596,0.9596,0.9596,0.957,0.9572,0.9575,0.9578,0.958,0.9582,0.9585,0.9586,0.9589,0.9593,0.9593,0.9597,0.9599,0.9603,0.9604,0.9607,0.9606,0.9607,0.9608,0.9608,0.9608,0.9598,0.9608,0.9608,0.9608,0.9608,0.9608,0,0.9577,0.9578,0.9582,0.9585,0.9588,0.9588,0.959,0.9593,0.9596,0.9599,0.9602,0.9606,0.961,0.9611,0.9615,0.9617,0.9616,0.9618,0.9617,0.9618,0.961,0.9608,0.9618,0.9618,0.9618,0.9618,0.9618,0.9618,0.9581,0.9585,0.9586,0.9592,0.9594,0.9598,0.96,0.9603,0.9605,0.961,0.9613,0.9614,0.9616,0.962,0.9624,0.9624,0.9625,0.9627,0.9627,0.9619,0.9618,0.9617,0.9616,0.9627,0.9627,0.9635,0.9635,0.9635]},{"header":{"parameterUnit":"m.s-1","parameterCategory":1,"la1":30.2991,"la2":30.254,"lo1":-89.0895,"lo2":-89.0444,"dy":0.0017,"dx":0.0017,"nx":28,"ny":28,"refTime":"2025-01-07T09:00:00:Z","depth":0,"parameterNumber":3,"parameterNumberName":"V-component_of_WINDS"},"data":[0,0,0,0,0,0,0,0,0,0,0,0,0,0,0,0,0,0,0,0,0,0,0,0,0,0,0,0,0,0,0,0,0,0,0,0,0,0,0,0,0,0,0,0,0,0,0,0,0,0,0,0,0,0,0,0,0,0,-4.6042,-4.6042,0,-4.6114,-4.6115,-4.6115,-4.6105,-4.6104,-4.6103,-4.6102,-4.6171,-4.6174,-4.6177,0,0,0,0,0,0,0,0,0,0,0,0,0,-4.5892,-4.5894,-4.6041,-4.6042,-4.6043,-4.6114,-4.6115,-4.6116,-4.6106,-4.6104,-4.6103,-4.6101,-4.617,-4.6174,-4.6177,0,0,0,0,0,0,0,0,0,0,0,0,0,-4.5959,-4.5895,-4.6041,-4.6047,-4.6048,-4.6113,-4.6115,-4.6116,-4.6106,-4.6104,-4.6102,-4.6101,-4.6169,-4.6173,-4.6178,-4.624,0,0,-4.6191,-4.6193,0,0,0,0,0,0,0,0,-4.5956,-4.5965,-4.6045,-4.6047,-4.6048,-4.6099,-4.6087,-4.6157,-4.6106,-4.6084,-4.6102,-4.61,-4.6148,-4.6154,-4.6171,-4.6244,-4.6247,-4.6191,-4.6194,-4.6196,-4.6197,0,0,0,0,0,0,0,-4.5951,-4.5962,-4.607,-4.6046,-4.6048,-4.6045,-4.6052,-4.61,-4.6125,-4.6086,-4.6085,-4.6094,-4.6149,-4.6167,-4.6173,-4.6248,-4.6191,-4.6195,-4.6198,-4.62,-4.6376,-4.6378,0,0,0,0,0,0,-4.5945,-4.5958,-4.6068,-4.6072,-4.5997,-4.6049,-4.6058,-4.6084,-4.6124,-4.6129,-4.6096,-4.6093,-4.6161,-4.6168,-4.6175,-4.6253,-4.6196,-4.62,-4.6203,-4.6374,-4.6377,-4.6379,0,0,0,0,0,0,-4.5942,-4.5955,-4.6065,-4.6015,-4.6029,-4.6053,-4.6084,-4.6087,-4.6105,-4.6132,-4.6136,-4.611,-4.6159,-4.6169,-4.6225,-4.6255,-4.6202,-4.6206,-4.6372,-4.6375,-4.6378,-4.6407,0,0,0,0,0,0,-4.5938,-4.5954,-4.5979,-4.6016,-4.6031,-4.6114,-4.6085,-4.6089,-4.6114,-4.6111,-4.6147,-4.6151,-4.6159,-4.6218,-4.6229,-4.626,-4.621,-4.6369,-4.6373,-4.6377,-4.6404,-4.6411,-4.6417,0,0,0,0,0,-4.5933,-4.5983,-4.598,-4.5993,-4.6063,-4.6116,-4.6125,-4.6134,-4.6116,-4.6141,-4.6158,-4.615,-4.625,-4.6224,-4.6236,-4.6269,-4.6367,-4.6372,-4.6377,-4.6401,-4.6409,-4.6417,0,0,0,0,0,0,-4.5947,-4.5988,-4.5985,-4.6049,-4.608,-4.6114,-4.6146,-4.6143,-4.6178,-4.6174,-4.6183,-4.6191,-4.6248,-4.6264,-4.6234,-4.6332,-4.6306,-4.6313,-4.632,-4.6329,-4.6335,-4.633,-4.6213,0,0,0,0,0,-4.5958,-4.5999,-4.6031,-4.6085,-4.61,-4.6121,-4.6144,-4.6149,-4.618,-4.6192,-4.6213,-4.6242,-4.6281,-4.6305,-4.6342,-4.6406,-4.6414,-4.6434,-4.6441,-4.6446,-4.6452,-4.6489,-4.6498,-4.6394,-4.6394,-4.6394,0,0,-4.598,-4.6007,-4.6032,-4.6088,-4.6112,-4.6154,-4.6131,-4.6175,-4.6206,-4.6198,-4.6253,-4.627,-4.6303,-4.6364,-4.6391,-4.6378,-4.6483,-4.6452,-4.6456,-4.6459,-4.6494,-4.6504,-4.6513,-4.6397,-4.6397,-4.6396,0,0,-4.6042,-4.6067,-4.6115,-4.614,-4.6177,-4.6191,-4.6202,-4.6238,-4.625,-4.6305,-4.6301,-4.6337,-4.6402,-4.6426,-4.6447,-4.6521,-4.6514,-4.6532,-4.6567,-4.6602,-4.661,-4.6618,-4.6645,-4.6654,-4.6538,-4.6538,-4.6538,0,-4.6064,-4.6128,-4.6139,-4.6185,-4.621,-4.6207,-4.6255,-4.6278,-4.6325,-4.6342,-4.6328,-4.6411,-4.6433,-4.65,-4.6518,-4.6535,-4.6548,-4.6528,-4.6609,-4.6616,-4.6623,-4.6649,-4.6659,-4.654,-4.654,-4.654,-4.6539,0,-4.6154,-4.6198,-4.6232,-4.628,-4.6309,-4.6355,-4.6373,-4.6401,-4.6403,-4.6418,-4.6475,-4.6502,-4.6544,-4.656,-4.6562,-4.6628,-4.6619,-4.6607,-4.658,-4.6635,-4.6659,-4.6669,-4.6543,-4.6542,-4.6542,-4.6541,0,0,-4.6226,-4.6281,-4.6294,-4.6316,-4.6358,-4.6392,-4.6438,-4.6482,-4.6506,-4.6538,-4.6578,-4.6634,-4.6624,-4.6647,-4.6652,-4.6683,-4.6741,-4.6667,-4.6668,-4.668,-4.6816,-4.6826,-4.6837,-4.6737,-4.6739,-4.6741,-4.6813,0,-4.6292,-4.6377,-4.6389,-4.6463,-4.6505,-4.6503,-4.6544,-4.6574,-4.6589,-4.6626,-4.6642,-4.6682,-4.6664,-4.6679,-4.671,-4.6727,-4.6768,-4.6722,-4.6773,-4.6775,-4.6766,-4.6849,-4.686,-4.6927,-4.6823,-4.6824,-4.6826,0,-4.6381,-4.6419,-4.6498,-4.6537,-4.6554,-4.6591,-4.6633,-4.6668,-4.6702,-4.6711,-4.6739,-4.674,-4.6788,-4.676,-4.6825,-4.6794,-4.6815,-4.6827,-4.683,-4.6836,-4.6804,-4.6858,-4.6948,-4.6959,-4.6841,-4.6839,-4.6838,0,-4.6427,-4.6497,-4.6555,-4.6574,-4.6619,-4.6645,-4.6665,-4.6698,-4.6724,-4.676,-4.6777,-4.6817,-4.6839,-4.687,-4.6882,-4.686,-4.6948,-4.692,-4.6956,-4.6956,-4.6974,-4.6973,-4.7071,-4.6987,-4.6987,-4.6987,-4.6987,0,-4.65,-4.6549,-4.6576,-4.6611,-4.6666,-4.6679,-4.6732,-4.6751,-4.678,-4.6818,-4.6818,-4.6854,-4.6867,-4.6905,-4.6914,-4.6968,-4.6978,-4.6986,-4.6988,-4.6986,-4.6985,-4.7001,-4.6996,-4.699,-4.6989,-4.6989,-4.6988,0,-4.6561,-4.6581,-4.6643,-4.6682,-4.6693,-4.6732,-4.6765,-4.6798,-4.6814,-4.6862,-4.6874,-4.6898,-4.6943,-4.6958,-4.7011,-4.7018,-4.708,-4.7078,-4.7069,-4.707,-4.7106,-4.7102,-4.7217,-4.7233,-4.7138,-4.7139,-4.714,0,-4.6606,-4.6644,-4.6689,-4.6715,-4.6737,-4.6779,-4.6807,-4.6821,-4.685,-4.6892,-4.6921,-4.6965,-4.7002,-4.7073,-4.7094,-4.7135,-4.7134,-4.7171,-4.714,-4.7137,-4.7135,-4.7133,-4.7137,-4.7177,-4.7178,-4.7179,-4.7179,0,-4.6686,-4.6695,-4.6735,-4.678,-4.6813,-4.6849,-4.6882,-4.6904,-4.6923,-4.6955,-4.7002,-4.703,-4.7086,-4.713,-4.7172,-4.7191,-4.7189,-4.7189,-4.72,-4.7199,-4.7193,-4.7198,-4.7086,-4.7186,-4.7186,-4.7185,-4.7185,-4.7184,-4.6741,-4.6775,-4.6813,-4.6858,-4.6886,-4.6918,-4.6953,-4.6974,-4.7013,-4.7061,-4.7067,-4.7117,-4.7151,-4.7208,-4.7229,-4.7268,-4.7257,-4.7272,-4.7276,-4.728,-4.7284,-4.7187,-4.7275,-4.7275,-4.7275,-4.7275,-4.7275,0,-4.6821,-4.6846,-4.6888,-4.6937,-4.6973,-4.697,-4.7007,-4.7037,-4.7082,-4.7115,-4.7152,-4.7206,-4.7249,-4.7275,-4.7318,-4.7344,-4.7344,-4.7355,-4.7354,-4.7358,-4.729,-4.7277,-4.7355,-4.7355,-4.7355,-4.7355,-4.7355,-4.7355,-4.6867,-4.6926,-4.6939,-4.7012,-4.7035,-4.7087,-4.7109,-4.7138,-4.7165,-4.7226,-4.7263,-4.728,-4.731,-4.7356,-4.7395,-4.7402,-4.7418,-4.743,-4.7435,-4.7371,-4.7363,-4.7355,-4.7343,-4.7433,-4.7433,-4.7501,-4.7501,-4.7502]}]]